Wind_Speed
119 119 118 118 117 116 116 116 115 115 114 114 114 113 113 113 112 112 111 110 109 107 106 105 104 103 102 102 102 101 101 101 100 99 98 97 96 95 94 93 92 91 90 90 91 91 91 92 92 92 92 91 90 88 86 84 82 81 79 79 78 78 78 78 78 78 79 79 79 79 79 78 78 79 79 80 79 79 78 78 78 77 77 77 77 76
119 119 118 118 117 116 116 116 115 115 114 114 114 114 113 113 113 113 112 111 111 110 108 107 105 104 103 102 102 102 101 101 101 100 100 98 97 96 95 94 93 92 92 91 91 91 91 91 91 91 91 90 89 88 86 84 83 82 81 81 81 81 81 81 81 81 81 81 81 81 81 81 81 81 81 82 81 81 80 80 79 79 78 78 77 75
119 119 118 118 117 116 116 116 115 115 114 114 114 114 113 113 113 113 113 112 112 111 110 109 108 106 105 104 103 102 102 102 102 101 101 100 99 98 97 96 95 94 93 93 92 91 91 91 91 91 90 90 89 87 86 85 84 84 83 83 83 83 83 83 83 83 83 83 83 83 83 83 83 83 83 84 83 82 82 81 80 80 79 78 77 75
119 118 118 118 117 117 117 116 116 115 115 114 114 114 113 113 113 113 112 112 112 112 111 110 110 109 107 106 105 104 104 103 103 102 102 102 101 100 99 98 97 97 96 94 94 93 92 92 91 91 91 90 89 88 87 87 86 86 86 86 85 85 85 85 85 85 85 85 85 85 85 85 85 85 85 85 84 84 83 82 81 80 79 78 76 74
119 119 119 119 118 118 118 117 117 116 116 115 115 114 114 113 113 113 113 112 112 112 112 112 111 110 109 108 107 107 106 105 105 104 104 103 103 102 102 101 100 99 98 97 96 95 94 93 93 92 92 91 90 90 89 89 88 88 88 88 88 88 87 87 87 87 87 87 87 87 87 87 87 87 87 86 85 85 84 83 82 80 79 77 75 73
120 120 120 119 119 119 118 118 117 117 116 116 115 115 114 114 113 113 113 113 113 113 112 112 112 111 111 110 109 109 108 107 107 106 106 105 105 104 104 104 103 102 101 100 99 98 97 96 95 94 93 93 92 92 91 91 91 91 90 90 90 90 89 89 89 89 89 89 89 89 89 89 89 89 88 87 87 86 85 84 82 80 78 77 74 71
121 120 120 120 119 119 118 118 117 117 116 116 115 115 114 113 113 113 113 113 113 112 112 112 112 112 112 111 111 110 110 109 108 108 107 107 107 106 106 106 105 105 104 104 103 101 100 99 98 97 96 96 95 95 94 94 94 93 93 93 93 92 92 92 91 91 91 91 91 91 91 91 90 90 89 89 88 87 86 84 82 80 77 75 73 70
121 120 120 119 119 119 118 118 117 117 116 116 116 115 114 114 113 113 113 112 112 112 112 112 112 112 112 112 111 111 111 110 110 109 109 108 108 108 108 108 107 107 107 106 106 105 103 102 101 100 99 99 98 98 98 97 97 97 96 96 96 95 95 94 94 94 94 93 93 93 93 93 92 91 91 90 89 88 86 84 82 79 77 75 72 69
120 119 119 118 118 118 118 118 117 117 116 116 116 116 116 115 115 114 114 114 113 113 113 113 112 112 112 112 112 111 111 111 110 110 109 109 109 109 109 109 109 109 109 108 108 107 106 105 104 103 102 101 101 101 101 100 100 100 100 99 99 98 98 97 97 96 96 96 96 95 95 94 94 93 92 91 89 88 86 84 81 79 76 74 71 68
118 118 118 118 117 117 117 118 118 117 117 117 117 117 117 117 116 116 116 116 116 115 115 114 114 114 113 113 112 112 112 111 111 110 110 109 109 109 109 109 110 110 110 110 109 109 108 107 106 105 104 103 103 103 103 103 102 102 102 101 101 100 100 99 99 98 98 97 97 97 96 95 94 93 92 91 89 87 85 83 81 78 76 73 70 66
118 118 118 118 118 118 118 118 118 118 118 118 118 119 118 118 118 117 117 117 117 117 117 117 116 116 116 115 114 114 114 113 112 112 111 110 110 109 109 110 110 110 111 111 111 110 109 108 108 107 106 105 105 104 104 104 104 104 103 103 102 102 101 100 100 99 98 98 98 97 96 95 94 93 92 90 88 87 85 82 80 78 75 72 69 66
119 119 119 119 119 119 119 119 119 119 119 119 120 120 120 119 119 118 118 119 119 118 118 118 118 118 117 117 117 116 116 115 115 114 113 112 111 110 110 110 110 111 111 112 112 111 110 109 109 108 107 106 106 105 105 105 105 105 104 104 103 102 101 101 100 99 98 98 97 96 96 95 94 92 91 89 88 86 84 82 80 77 75 72 69 65
121 121 121 121 122 122 122 122 121 121 121 121 121 121 121 121 120 119 120 120 120 119 119 119 119 119 119 119 119 119 118 118 117 116 115 114 113 113 112 112 111 112 112 112 112 112 111 111 110 109 108 107 107 106 106 106 106 106 105 105 104 103 102 101 100 99 98 97 96 96 95 94 93 91 90 88 87 85 83 81 79 77 74 72 69 65
123 123 123 123 124 124 124 124 124 124 124 124 123 123 123 123 122 122 121 121 121 120 120 119 120 120 120 120 120 120 120 120 119 118 117 117 116 115 114 114 113 113 113 113 113 113 113 113 112 111 109 108 107 107 106 106 106 106 106 105 104 104 103 102 100 99 98 97 96 95 94 93 92 91 90 88 86 85 83 81 79 77 75 72 69 66
125 125 125 125 125 125 125 125 125 126 126 125 125 125 124 124 124 123 123 123 122 121 121 120 120 121 121 121 121 121 121 121 121 120 119 118 118 117 117 116 116 115 114 114 114 115 115 115 114 113 112 110 109 107 107 107 107 107 106 106 105 104 103 102 101 100 99 97 96 95 94 93 92 91 89 88 86 85 83 81 79 77 75 72 69 66
126 126 126 127 127 127 127 126 126 127 127 126 126 125 125 125 125 124 123 123 123 122 121 121 121 121 121 121 121 122 122 123 122 121 120 120 119 118 118 118 118 117 117 116 116 116 116 116 116 116 114 113 111 109 108 107 107 107 107 106 105 104 103 103 101 100 99 98 97 95 94 93 92 90 89 88 86 85 83 81 79 77 75 73 70 67
127 127 127 127 127 127 127 126 126 126 126 126 125 124 124 124 123 123 122 122 122 121 121 121 120 121 121 120 120 121 122 123 123 123 122 121 120 120 119 119 119 119 118 118 118 117 117 118 118 119 118 116 114 112 110 109 108 107 107 107 106 105 104 103 101 100 99 98 97 96 95 93 92 91 89 88 86 85 83 82 80 78 76 73 71 68
127 127 127 127 127 126 126 125 125 125 124 124 123 122 121 121 121 121 120 120 120 120 119 118 118 118 118 119 119 119 119 121 123 123 122 122 121 120 120 120 120 120 120 119 119 118 118 119 120 121 121 119 117 115 113 111 110 109 108 107 106 105 104 103 102 101 100 99 98 97 95 94 92 91 89 88 87 85 84 82 80 78 76 74 72 69
126 126 125 125 125 124 123 123 122 121 121 120 120 119 118 118 117 117 117 116 116 116 116 115 115 114 114 115 116 116 116 118 120 121 121 121 121 120 120 120 121 121 120 120 120 119 119 120 121 122 123 122 121 119 116 114 112 111 110 109 108 106 105 104 102 101 100 99 98 97 96 94 93 91 90 88 87 86 84 82 81 79 77 75 73 70
124 123 123 122 121 120 120 119 118 117 116 116 115 114 114 113 113 113 112 112 112 111 111 111 110 110 110 110 111 111 112 113 115 117 118 118 118 118 118 119 121 121 121 121 120 120 120 121 122 123 124 125 124 122 120 117 115 113 112 110 109 108 106 105 104 102 101 100 99 98 97 95 94 92 91 89 88 86 85 83 81 80 78 76 74 72
121 120 119 118 117 116 115 114 113 112 111 111 110 109 109 108 108 108 107 107 107 107 106 106 106 105 105 105 106 106 107 109 110 112 113 114 114 114 115 117 118 120 120 120 120 120 120 121 122 124 125 126 126 125 123 120 118 116 114 112 111 110 108 107 105 104 103 102 101 99 98 97 95 93 92 90 89 87 86 84 83 81 79 77 75 73
117 116 115 113 112 112 111 109 108 107 107 106 106 105 104 104 103 103 103 102 102 102 102 102 101 101 100 101 101 102 103 104 106 107 108 109 109 109 110 112 115 116 118 119 119 120 121 122 123 124 126 127 128 127 126 123 121 118 116 114 113 112 111 109 108 106 105 104 102 101 100 98 97 95 93 92 90 89 87 86 84 82 81 79 77 75
114 113 111 110 109 107 106 105 104 103 103 102 102 101 100 100 99 99 98 98 98 98 98 97 97 97 97 97 97 98 99 100 101 102 103 104 104 105 106 108 110 112 113 115 116 118 120 122 123 125 126 128 129 129 128 126 123 120 118 116 115 115 114 112 111 109 107 106 104 103 101 100 98 97 95 93 92 90 89 87 86 84 82 81 79 77
112 110 109 107 106 104 103 102 101 100 99 99 98 97 96 96 95 94 94 94 94 94 93 93 93 93 93 93 94 94 95 96 97 98 99 100 100 100 101 103 105 107 109 110 112 114 117 120 122 124 126 127 129 130 130 128 125 122 120 118 118 117 116 115 113 112 110 108 107 105 103 102 100 99 97 95 94 92 91 89 87 86 84 83 81 79
110 109 107 106 104 102 101 100 98 97 97 96 95 94 93 92 91 91 90 90 90 90 89 89 89 89 89 89 90 91 92 93 94 95 96 96 96 96 97 99 101 103 105 106 107 110 113 116 119 122 124 126 129 130 131 129 127 124 121 120 119 119 118 117 116 114 112 111 109 107 106 104 102 101 99 97 96 94 93 91 89 88 86 85 83 81
109 107 106 104 103 101 99 98 96 95 94 93 92 91 90 89 88 87 87 86 86 86 85 85 85 85 85 85 86 87 88 90 91 92 93 93 92 93 93 95 97 100 101 102 103 105 108 112 115 118 121 124 126 129 130 130 128 125 123 122 121 120 120 119 118 116 115 113 111 109 108 106 104 103 101 100 98 97 95 93 92 90 89 87 85 84
107 106 104 103 101 99 98 96 95 93 92 91 89 88 87 86 85 84 83 83 82 82 81 81 81 81 81 81 82 83 85 86 88 89 89 89 89 89 90 92 94 97 98 99 100 102 104 107 110 113 117 120 123 126 128 129 128 126 124 122 122 121 121 120 119 118 117 115 113 111 110 108 107 105 103 102 100 99 97 96 94 92 91 90 88 86
106 104 103 101 99 98 96 94 93 91 90 88 87 85 84 83 82 81 80 79 78 78 78 77 77 77 77 78 78 80 81 83 84 85 86 86 86 87 88 90 92 94 96 97 98 99 101 103 106 109 112 115 118 121 124 127 127 126 124 123 122 122 122 121 121 120 118 117 115 114 112 110 109 107 106 104 103 101 100 98 96 95 94 92 90 88
104 103 101 99 98 96 94 92 90 89 87 85 84 82 81 80 79 78 77 76 75 74 74 74 73 73 73 74 74 76 77 79 81 82 82 83 83 84 85 87 89 91 93 95 95 96 98 100 103 105 108 111 114 116 120 122 124 125 124 122 122 122 122 123 122 121 120 119 117 116 114 113 111 110 108 107 105 103 102 100 99 97 96 94 92 91
102 100 99 97 95 93 92 90 88 86 84 83 81 80 78 77 76 75 74 73 72 71 71 70 70 70 70 70 71 72 74 76 78 79 79 80 80 82 83 85 87 89 90 92 93 94 96 97 100 102 104 107 109 111 114 117 119 121 122 121 122 122 123 123 123 123 122 121 119 118 116 115 113 112 110 109 107 106 104 103 101 100 98 96 94 93
98 97 96 94 92 91 89 87 85 84 82 80 78 77 75 74 73 72 71 70 69 69 68 68 67 67 67 67 68 69 70 72 74 75 76 76 77 79 80 82 84 86 87 89 90 91 93 94 96 98 101 103 105 107 109 111 113 116 118 120 121 122 123 123 123 123 122 121 120 119 118 116 115 114 112 111 109 108 106 105 103 102 100 99 97 95
94 93 92 91 89 88 86 85 83 81 79 78 76 74 73 71 70 69 68 68 67 66 66 65 65 64 64 64 65 66 67 69 70 72 72 73 74 76 77 79 81 83 84 85 87 88 89 91 93 95 97 99 101 102 104 105 107 110 114 117 120 121 122 122 121 121 121 121 121 120 119 118 117 115 114 112 111 110 108 107 105 104 102 100 99 97
90 89 88 87 85 84 83 81 80 78 77 75 73 72 70 69 68 67 66 65 65 64 64 63 63 62 62 62 62 63 64 66 67 68 69 70 71 73 75 77 79 80 81 82 83 85 86 88 89 91 93 95 97 98 99 100 102 105 110 114 118 119 119 119 119 119 120 120 120 120 120 119 118 117 115 114 113 111 110 109 107 106 104 102 101 99
86 85 84 83 81 80 79 78 77 75 74 72 71 70 68 67 66 65 64 63 63 62 61 61 61 60 60 60 60 61 62 63 64 65 66 67 69 70 72 74 75 77 78 79 80 81 83 84 86 87 89 91 92 94 95 97 99 102 106 110 114 116 117 116 116 116 117 118 120 120 120 120 119 118 117 116 114 113 112 110 109 108 106 104 102 101
82 81 80 79 78 77 76 75 73 72 71 69 68 67 66 65 64 63 62 61 60 60 59 59 58 58 58 58 58 59 59 61 62 63 63 65 66 67 69 70 72 73 74 75 76 78 79 80 81 83 85 87 88 90 92 94 96 99 102 107 111 113 114 114 114 114 115 116 118 120 121 120 120 119 118 117 116 115 113 112 111 109 108 106 104 102
78 77 76 75 74 73 72 71 70 69 68 67 65 64 63 62 61 61 60 59 58 58 57 57 56 56 56 56 56 57 57 58 59 60 61 62 63 64 65 67 68 69 71 72 73 74 75 76 77 79 81 83 85 87 89 91 93 96 99 103 107 111 112 112 111 111 112 114 117 119 120 120 120 120 119 118 117 116 115 114 112 111 110 108 106 104
75 74 73 72 71 70 69 68 67 66 65 64 63 62 61 60 59 58 58 57 56 56 55 55 55 54 54 54 54 55 55 56 56 57 58 59 60 61 62 63 65 66 67 68 69 70 71 72 73 75 77 80 82 84 87 89 91 94 97 100 104 107 110 110 109 108 109 112 115 117 119 120 120 120 119 119 118 117 116 115 114 112 111 109 108 106
71 70 69 68 67 67 66 65 64 63 62 61 60 59 59 58 57 56 56 55 54 54 53 53 53 52 52 52 52 52 53 53 54 54 55 56 57 58 59 60 62 63 64 65 65 66 67 68 70 72 74 76 79 81 84 86 89 91 94 97 100 103 106 107 106 106 107 109 112 114 117 118 119 119 119 119 118 118 117 116 115 114 112 111 109 107
68 67 66 65 64 64 63 62 62 61 60 59 58 57 57 56 55 54 54 53 52 52 51 51 51 51 50 50 50 50 51 51 51 52 52 53 54 55 56 57 58 60 61 61 62 63 64 65 67 69 71 73 75 78 81 83 86 89 91 94 97 100 102 103 104 103 104 105 108 111 114 116 117 118 119 119 119 118 118 117 116 115 113 112 110 109
65 64 63 62 62 61 60 60 59 58 58 57 56 55 55 54 53 52 52 51 51 50 50 49 49 49 48 48 48 48 49 49 49 50 50 51 51 52 53 54 55 56 57 58 59 60 61 62 63 65 67 70 72 75 78 80 83 86 88 91 94 97 99 100 101 101 101 102 105 108 111 113 115 117 118 118 118 118 118 118 117 116 114 113 112 110
62 62 61 60 59 58 58 57 56 56 55 55 54 53 53 52 51 51 50 49 49 48 48 48 47 47 47 47 46 47 47 47 47 48 48 49 49 50 51 52 53 53 54 55 56 57 58 59 60 62 64 66 69 71 74 77 80 83 85 88 91 93 95 97 98 98 98 99 101 104 107 110 113 115 116 117 118 118 118 117 117 116 115 114 112 111
60 59 59 58 57 56 56 55 54 54 53 53 52 51 51 50 49 49 48 48 47 47 46 46 46 46 45 45 45 45 45 45 46 46 46 47 47 48 49 49 50 51 51 52 53 54 55 56 57 59 61 63 65 68 71 74 77 80 83 85 87 89 91 94 95 95 96 96 97 100 103 107 110 113 114 115 116 117 117 117 117 116 115 114 113 112
58 58 57 56 56 55 54 53 52 52 51 51 50 50 49 48 48 47 47 46 46 45 45 45 44 44 44 44 43 43 44 44 44 44 45 45 45 46 47 47 48 49 49 50 50 51 52 53 55 56 58 60 63 65 68 71 74 77 80 82 84 87 89 91 92 93 93 93 94 96 100 104 107 109 111 113 114 115 116 116 117 116 116 115 114 112
56 56 55 55 54 53 52 52 51 50 49 49 48 48 47 46 46 45 45 44 44 44 43 43 43 43 42 42 42 42 42 42 42 43 43 43 44 44 45 45 46 47 47 48 48 49 50 51 52 54 55 58 60 63 66 69 72 74 77 79 81 84 86 88 89 90 90 91 92 94 97 100 103 106 108 110 112 114 115 116 116 116 116 115 114 112
54 54 53 53 53 52 51 50 49 48 48 47 46 46 45 45 44 44 43 43 42 42 42 41 41 41 41 41 41 41 41 41 41 41 41 42 42 42 43 43 44 45 45 46 46 47 48 49 50 52 54 56 58 61 64 67 69 72 74 76 78 80 82 84 85 86 88 89 90 92 94 97 100 103 105 108 110 112 114 115 115 116 115 115 114 113
52 52 51 51 51 50 50 49 48 47 46 45 45 44 44 43 42 42 41 41 41 40 40 40 40 40 39 39 39 39 39 39 39 40 40 40 40 41 41 42 42 43 44 44 45 45 46 47 48 50 52 54 57 59 62 65 67 69 72 74 75 77 79 81 82 84 85 86 88 89 91 94 96 100 103 106 108 110 112 113 114 115 115 114 114 113
50 50 49 49 49 48 48 47 46 46 45 44 43 42 42 41 41 40 40 39 39 39 38 38 38 38 38 37 37 37 37 38 38 38 38 39 39 39 39 40 40 41 42 42 43 44 45 46 47 48 50 52 55 57 60 62 65 67 69 70 72 74 76 78 79 80 82 83 85 87 88 91 94 97 100 102 105 107 109 110 112 113 113 113 113 113
49 48 48 47 47 47 46 46 45 44 43 42 42 41 40 40 39 39 38 38 37 37 37 36 36 36 36 36 36 36 36 36 36 36 37 37 37 38 38 38 39 39 40 41 41 42 43 44 45 47 48 51 53 55 57 60 62 64 65 67 69 70 72 74 75 77 78 80 82 84 86 88 90 93 96 98 101 104 106 108 110 111 112 112 113 113
47 47 46 46 46 45 45 44 44 43 42 41 41 40 39 38 38 37 37 36 36 35 35 35 34 34 34 34 34 34 34 34 34 35 35 35 36 36 36 37 37 38 38 39 40 41 42 42 44 45 47 49 51 53 55 57 59 60 62 63 65 67 69 71 72 74 75 77 79 81 83 85 87 89 91 94 98 101 103 105 107 109 110 111 112 112
46 46 45 45 44 44 43 43 43 42 41 40 40 39 38 37 36 36 35 34 34 34 33 33 33 32 32 32 32 32 32 32 32 33 33 34 34 35 35 35 36 36 37 38 38 39 40 41 42 43 45 47 49 51 53 54 56 57 59 61 63 64 66 68 69 71 72 74 76 78 80 81 83 85 88 91 94 97 99 102 104 106 108 109 111 111
45 45 44 43 43 43 42 42 41 41 40 39 39 38 37 36 35 34 34 33 32 32 32 31 31 31 30 30 30 30 30 30 31 31 32 32 33 33 33 34 34 35 35 36 37 38 39 40 41 42 43 45 47 49 50 52 53 55 56 58 60 62 64 65 67 68 69 72 74 76 77 79 81 83 86 88 91 93 96 99 101 104 106 107 109 111
Wind_Direction
284 284 284 284 283 283 283 283 283 283 282 282 282 282 282 282 282 281 281 281 280 279 279 278 277 277 276 276 276 276 276 276 276 276 275 275 274 274 273 272 272 271 270 269 269 269 269 269 270 270 270 271 271 272 272 273 273 273 273 273 274 274 274 274 275 275 276 276 277 278 278 279 279 279 279 280 281 281 282 283 284 285 286 287 288 289
285 285 284 284 284 283 283 283 283 283 283 283 283 283 283 283 283 283 282 282 282 281 281 280 279 278 277 277 276 276 276 275 275 275 275 275 274 274 273 273 272 272 271 270 270 269 269 269 270 270 271 271 272 272 272 272 273 273 273 273 273 273 273 273 273 274 274 275 275 276 277 277 277 278 278 279 280 281 282 283 284 285 286 287 287 288
285 285 284 284 284 284 284 284 284 283 283 283 283 283 283 283 283 283 283 283 283 283 282 282 281 280 280 279 278 277 277 276 276 276 276 275 275 274 274 273 273 272 272 271 271 270 270 270 270 270 271 271 272 272 272 272 272 272 272 271 271 271 272 272 272 273 273 274 274 275 275 276 276 277 277 278 279 280 281 282 283 284 285 286 287 288
284 284 284 284 284 284 284 284 284 283 283 283 283 283 283 282 282 282 282 282 282 282 282 282 282 281 281 280 279 279 278 277 277 277 277 276 276 276 275 275 274 273 273 272 272 271 271 270 270 271 271 271 271 272 271 271 271 271 271 270 270 270 270 271 271 272 272 273 273 274 274 275 275 276 277 277 278 279 280 281 282 283 285 285 286 287
285 284 284 284 284 284 284 284 284 283 283 283 283 282 282 282 281 281 281 281 281 280 280 280 280 280 280 279 279 279 278 278 277 277 277 277 277 276 276 275 275 275 274 273 273 272 271 271 271 270 270 271 271 271 270 270 270 270 270 270 269 270 270 270 270 271 271 272 272 273 273 274 274 275 276 277 278 279 280 281 282 283 284 285 286 287
285 285 285 285 285 284 285 284 284 284 284 283 283 282 282 282 281 281 280 280 279 279 279 279 279 279 278 278 278 277 277 277 276 276 276 276 276 275 275 275 275 275 274 274 273 272 272 271 271 270 270 270 270 269 269 269 269 269 269 269 269 269 269 269 270 270 270 271 271 272 272 273 274 275 276 277 277 278 279 280 281 282 283 284 285 286
286 286 286 286 285 285 285 285 285 284 284 284 284 283 283 282 282 281 280 280 279 279 279 278 278 278 277 277 277 276 276 276 275 275 275 274 274 274 274 274 274 274 273 273 273 272 272 271 270 269 269 269 268 268 268 268 268 268 268 268 268 268 268 269 269 269 270 270 271 271 272 272 273 274 275 276 277 278 279 280 281 281 282 283 284 285
287 287 287 286 286 286 286 286 285 285 285 284 284 284 283 283 282 282 281 280 280 279 279 278 278 277 277 276 276 276 275 275 274 274 274 273 273 273 273 273 273 272 272 272 272 272 271 270 270 269 268 268 267 267 267 267 267 267 267 267 267 268 268 268 268 268 269 269 270 271 271 272 273 274 274 275 276 277 278 279 280 281 281 282 283 283
287 287 287 287 287 286 286 286 285 285 285 284 284 283 283 283 282 282 281 281 280 279 279 278 278 277 277 276 276 275 275 274 274 274 273 273 273 272 272 272 272 272 272 271 271 271 271 270 270 269 268 268 267 267 267 266 266 266 266 267 267 267 267 267 268 268 268 269 269 270 271 271 272 273 274 275 276 276 277 278 279 280 280 281 281 282
288 287 287 287 286 286 285 285 285 284 284 283 283 282 282 282 281 281 280 280 279 279 278 278 277 277 277 276 276 275 274 274 274 273 273 272 272 272 271 271 271 271 271 271 271 270 270 270 270 269 269 268 267 267 267 266 266 266 266 266 266 267 267 267 267 268 268 269 269 270 270 271 272 272 273 274 275 276 276 277 278 278 279 279 280 280
288 287 287 286 286 285 285 284 284 283 283 282 282 281 281 280 280 279 279 279 278 278 278 277 277 276 276 276 275 275 274 274 273 273 272 272 271 271 271 271 270 270 270 270 270 270 270 269 269 269 269 268 268 267 267 267 267 267 267 267 267 267 267 267 267 268 268 268 269 269 270 271 271 272 273 273 274 275 275 276 277 277 278 278 278 279
287 287 286 286 285 285 284 284 283 283 282 282 281 281 280 280 279 279 278 278 277 277 277 276 276 276 275 275 274 274 274 273 273 272 272 271 271 271 270 270 269 269 269 269 269 269 269 269 269 268 268 268 267 267 267 267 267 267 267 267 267 267 267 267 267 268 268 268 269 269 270 270 271 271 272 273 273 274 274 275 275 276 276 277 277 277
288 287 287 287 286 286 285 285 284 284 283 283 282 281 281 280 280 279 279 278 277 277 276 276 275 275 274 274 274 273 273 272 272 272 271 271 270 270 269 269 269 268 268 268 269 269 268 268 268 267 267 267 267 266 266 266 266 266 266 266 267 267 267 267 267 267 268 268 268 269 269 270 270 271 271 272 272 273 273 274 274 274 275 275 275 275
288 288 288 287 287 286 286 286 285 285 284 283 283 282 282 281 280 280 279 278 277 277 276 276 275 275 274 274 273 272 272 271 271 271 270 270 269 269 268 268 268 267 267 267 267 268 268 267 267 267 266 266 266 266 265 265 265 265 266 266 266 266 266 266 267 267 267 267 268 268 268 269 269 270 270 271 271 272 272 272 273 273 273 274 274 273
289 289 288 288 287 287 286 286 285 285 284 284 283 282 282 281 281 280 279 279 278 277 277 276 275 274 274 273 273 272 272 271 271 270 269 269 268 268 267 267 267 266 266 266 266 266 267 267 266 266 266 265 265 265 264 264 264 264 264 265 265 265 265 265 266 266 266 267 267 267 267 268 268 269 269 270 270 270 271 271 271 272 272 272 272 272
289 289 288 288 287 287 286 286 285 285 284 284 283 282 282 281 281 280 279 279 278 277 277 276 275 274 274 273 272 272 271 271 270 270 269 268 267 267 266 266 265 265 265 265 265 265 265 265 266 265 265 265 264 264 263 263 263 263 263 263 264 264 264 264 265 265 265 265 266 266 266 267 267 267 268 268 269 269 269 270 270 270 270 270 270 270
289 289 288 288 287 287 286 286 285 285 284 283 283 282 282 281 281 280 280 279 278 277 277 276 275 274 273 273 272 271 271 270 270 269 268 268 267 266 265 265 264 264 264 263 263 263 263 264 264 265 264 264 263 263 262 262 262 262 262 262 262 263 263 263 263 264 264 264 264 265 265 265 266 266 266 267 267 267 268 268 268 268 269 269 269 268
289 289 288 288 287 287 286 286 285 285 284 284 283 283 282 281 281 280 280 279 278 277 277 276 275 274 273 272 272 271 270 269 269 268 268 267 266 266 265 264 264 263 263 262 262 262 262 262 263 263 263 263 263 262 262 261 261 261 261 261 261 261 262 262 262 262 263 263 263 263 264 264 264 265 265 265 266 266 266 266 267 267 267 267 267 267
289 289 288 288 287 287 286 286 285 285 284 284 283 283 282 282 281 280 280 279 278 277 276 276 275 274 273 272 271 270 269 269 268 267 267 266 265 265 264 264 263 263 262 261 261 261 260 260 261 261 262 262 262 261 261 260 260 260 260 260 260 260 260 261 261 261 261 262 262 262 262 263 263 263 263 264 264 264 265 265 265 265 265 265 265 265
289 289 288 288 287 287 287 286 286 285 285 284 284 283 282 282 281 280 280 279 278 277 276 275 274 273 272 272 271 270 269 268 267 266 266 265 264 264 263 263 262 262 261 261 260 260 259 259 259 259 260 260 261 260 260 259 259 259 259 259 259 259 259 260 260 260 260 260 261 261 261 261 262 262 262 262 263 263 263 263 263 264 264 264 264 264
290 289 289 289 288 288 287 287 286 286 285 285 284 283 283 282 281 280 279 279 278 277 276 275 274 273 272 271 270 269 268 268 267 266 265 264 263 263 262 261 261 260 260 259 259 259 258 258 258 258 258 259 259 259 259 259 258 258 258 258 258 258 258 258 259 259 259 259 259 260 260 260 260 260 261 261 261 261 262 262 262 262 262 262 262 262
291 290 290 289 289 289 288 288 287 287 286 285 285 284 283 282 281 280 279 278 278 277 276 275 274 273 272 271 270 269 268 267 266 265 264 263 262 261 261 260 259 259 258 258 257 257 257 256 256 256 256 257 257 258 258 257 257 257 256 257 257 257 257 257 257 257 257 258 258 258 258 259 259 259 259 260 260 260 260 260 261 261 261 261 261 261
292 291 291 291 290 290 289 289 288 287 287 286 285 284 283 282 281 280 279 278 278 277 276 275 274 273 272 270 269 268 267 266 265 264 263 262 261 260 259 259 258 257 257 256 256 255 255 255 255 254 255 255 256 256 256 256 256 256 255 255 255 256 256 256 256 256 256 256 256 257 257 257 257 258 258 258 258 259 259 259 259 260 260 260 260 260
293 293 292 292 292 291 291 290 289 288 288 287 286 285 284 283 282 281 280 279 278 276 275 274 273 272 271 270 269 268 266 265 264 263 262 261 260 259 258 258 257 256 255 254 254 253 253 253 253 252 253 253 254 254 255 255 255 254 254 254 254 254 254 254 254 254 255 255 255 255 255 256 256 256 257 257 257 257 258 258 258 258 259 259 259 259
294 294 294 293 293 292 292 291 290 290 289 288 287 286 285 284 283 281 280 279 278 276 275 274 273 272 271 270 269 267 266 265 264 263 262 260 259 258 258 257 256 255 254 253 252 252 251 251 250 250 250 251 251 252 253 253 253 253 253 252 252 252 252 253 253 253 253 253 253 254 254 254 255 255 255 256 256 256 256 257 257 257 257 258 258 258
295 295 295 294 294 294 293 292 292 291 290 289 288 287 286 285 284 282 281 280 278 277 276 274 273 272 270 269 268 267 266 264 263 262 261 260 259 258 257 256 255 254 253 252 251 250 250 249 249 249 248 249 249 250 251 251 252 252 251 251 251 251 251 251 251 252 252 252 252 252 253 253 253 254 254 254 255 255 255 256 256 256 256 256 257 257
296 296 296 295 295 294 294 293 293 292 291 290 289 288 287 286 285 283 282 280 279 278 276 275 273 272 270 269 268 266 265 264 263 262 261 259 258 257 256 255 254 253 252 251 250 249 248 248 247 247 247 247 247 247 248 249 250 250 250 250 249 249 250 250 250 250 251 251 251 251 252 252 252 252 253 253 253 254 254 254 255 255 255 255 255 256
297 297 296 296 296 295 295 294 293 293 292 291 290 289 288 287 285 284 283 281 280 278 277 275 274 272 270 269 267 266 265 264 262 261 260 259 258 256 255 254 253 252 251 250 249 248 247 247 246 246 245 245 245 245 246 247 248 248 248 248 248 248 248 249 249 249 249 250 250 250 250 251 251 251 251 252 252 252 253 253 253 254 254 254 254 255
297 297 297 297 296 296 295 295 294 293 293 292 291 290 289 287 286 285 283 282 281 279 277 276 274 272 271 269 267 266 265 263 262 261 260 259 257 256 254 253 252 251 250 249 248 247 246 246 245 245 244 244 244 244 244 244 245 246 247 247 247 247 247 247 247 248 248 248 248 249 249 249 249 250 250 250 251 251 251 252 252 252 253 253 253 254
298 298 297 297 297 296 296 295 295 294 293 293 292 291 289 288 287 286 284 283 282 280 279 277 275 273 271 269 268 266 265 263 262 261 260 258 257 256 254 253 252 251 250 249 248 247 246 245 244 244 243 243 243 243 242 242 243 244 245 245 245 245 245 245 246 246 246 246 247 247 247 248 248 248 249 249 249 250 250 250 251 251 252 252 252 253
298 298 298 297 297 297 297 296 295 295 294 293 292 291 290 289 288 286 285 284 283 281 280 278 276 274 272 270 268 267 265 263 262 261 260 258 257 256 254 253 252 251 250 249 248 247 247 246 245 244 244 243 243 242 242 242 242 242 243 243 244 244 244 244 244 244 244 245 245 246 246 246 247 247 247 248 248 248 249 249 250 250 250 251 251 252
298 298 298 298 297 297 297 296 296 295 295 294 293 292 291 290 289 287 286 285 283 282 280 279 277 275 273 271 269 267 265 264 263 261 260 258 257 256 255 253 252 251 250 249 249 248 247 246 245 245 244 244 243 243 242 242 241 241 241 241 242 242 243 242 242 243 243 243 244 244 245 245 245 246 246 247 247 247 248 248 249 249 249 250 250 251
298 298 298 298 297 297 297 297 296 296 295 295 294 293 292 291 289 288 287 285 284 283 281 279 278 276 274 272 270 268 266 265 263 262 260 259 257 256 254 253 252 251 250 249 249 248 247 246 245 245 244 244 244 243 243 242 241 240 240 240 241 241 242 242 241 241 241 242 242 243 243 244 244 245 245 245 246 246 247 247 248 248 248 249 249 250
298 298 298 298 297 297 297 297 296 296 295 295 294 293 292 291 290 289 287 286 285 283 282 280 278 276 275 273 271 269 267 265 263 262 260 259 257 256 255 254 253 252 251 250 249 248 247 246 245 245 244 244 243 243 242 242 241 240 239 239 240 241 241 241 241 240 240 240 241 241 242 242 243 243 244 244 245 245 246 246 247 247 247 248 248 248
299 299 298 298 298 297 297 297 296 296 295 295 294 293 292 291 290 289 288 287 285 284 282 281 279 277 275 273 271 269 267 266 264 263 261 259 258 257 255 254 253 252 251 250 249 248 247 247 246 245 244 243 243 242 241 241 240 239 239 238 239 240 241 241 240 240 239 239 239 240 240 241 241 242 242 243 243 244 244 245 245 246 246 247 247 247
300 299 299 298 298 298 297 297 297 296 296 295 294 294 293 292 291 289 288 287 286 284 283 281 279 278 276 274 272 270 268 266 265 263 262 260 259 258 256 255 254 253 252 251 250 249 248 247 246 245 244 243 242 241 241 240 239 238 238 237 238 238 239 240 240 239 238 238 238 238 239 239 240 240 241 241 242 243 243 244 244 245 245 246 246 246
300 300 300 299 299 298 298 298 297 297 296 296 295 294 293 292 291 290 289 287 286 285 283 282 280 278 276 275 273 271 269 267 266 264 263 261 260 258 257 256 255 254 252 252 250 249 248 247 246 244 243 242 241 241 240 239 238 237 237 236 236 237 238 239 239 239 238 237 237 237 237 238 238 239 239 240 241 241 242 242 243 243 244 244 245 245
301 301 300 300 300 299 299 298 298 298 297 296 296 295 294 293 291 290 289 288 287 285 284 282 281 279 277 275 273 271 270 268 267 265 263 262 261 259 258 256 255 254 253 252 251 249 248 247 245 244 243 242 241 240 239 238 238 237 236 236 236 236 237 238 238 238 237 236 236 236 236 237 237 238 238 239 239 240 240 241 242 242 243 243 244 244
302 302 302 301 301 300 300 299 299 298 298 297 296 295 294 293 292 291 290 289 287 286 284 283 281 280 278 276 274 272 271 269 267 266 264 262 261 259 258 257 255 254 253 252 251 249 248 247 245 244 243 242 241 240 239 238 237 237 236 236 236 236 236 237 237 237 236 236 235 235 235 235 236 236 237 237 238 238 239 240 240 241 241 242 243 243
304 303 303 302 302 301 301 300 300 299 298 298 297 296 295 294 293 292 291 290 288 287 285 284 282 280 278 277 275 273 271 269 268 266 264 263 261 260 258 257 256 255 253 252 251 249 248 247 245 244 243 241 240 240 239 238 237 236 236 235 235 235 235 236 236 236 236 235 234 234 234 234 235 235 236 236 237 237 238 238 239 240 240 241 241 242
305 305 304 304 303 303 302 302 301 300 299 299 298 297 296 295 294 293 292 290 289 288 286 284 283 281 279 277 276 274 272 270 268 266 265 263 261 260 258 257 256 255 253 252 250 249 248 246 245 243 242 241 240 239 238 238 237 236 236 235 235 235 235 235 236 236 235 235 234 233 233 233 233 234 234 235 235 236 236 237 238 238 239 240 240 241
307 306 306 305 305 304 303 303 302 301 300 299 299 298 297 296 295 294 293 291 290 288 287 285 284 282 280 278 276 274 272 271 269 267 265 264 262 260 258 257 256 254 253 252 250 249 247 246 244 243 242 240 239 238 238 237 237 236 235 235 235 235 235 235 235 235 235 234 233 233 232 232 232 233 233 234 234 235 235 236 237 237 238 238 239 239
309 308 307 307 306 305 305 304 303 302 301 301 299 299 298 297 296 295 293 292 291 289 287 286 284 282 281 279 277 275 273 271 269 268 266 264 262 260 259 257 256 254 253 251 250 248 247 245 244 242 241 240 239 238 237 236 236 235 235 235 234 234 234 234 234 234 234 234 233 232 231 231 231 232 232 233 233 234 234 235 235 236 236 237 238 238
310 310 309 308 308 307 306 305 305 304 303 302 301 300 299 298 297 295 294 293 291 290 288 286 285 283 281 279 277 276 274 272 270 268 266 265 263 261 259 258 256 255 253 251 249 248 246 245 243 242 240 239 238 237 236 235 235 235 234 234 234 233 233 233 234 233 233 233 232 231 231 231 231 231 231 232 232 232 233 233 234 235 235 236 237 237
312 311 310 310 309 308 307 307 306 305 304 303 302 301 300 299 298 297 295 294 292 291 289 287 285 284 282 280 278 276 274 272 271 269 267 265 263 262 260 258 256 255 253 251 250 248 246 244 242 241 240 238 237 236 236 235 235 234 234 233 233 233 233 233 233 233 233 232 231 231 230 230 230 230 230 230 231 231 232 232 233 233 234 235 235 236
313 312 311 311 310 309 309 308 307 306 305 304 303 302 301 300 299 298 296 295 293 291 290 288 286 284 282 281 279 277 275 273 271 269 267 265 264 262 260 258 257 255 253 251 250 248 246 244 242 241 239 238 237 236 236 235 234 234 234 233 233 233 232 232 232 232 232 231 231 230 230 229 229 229 229 229 230 230 230 231 232 232 233 233 234 234
315 314 313 312 311 311 310 309 309 308 307 306 305 304 303 302 300 299 298 296 294 292 291 289 287 285 283 281 279 277 275 273 271 270 268 266 264 262 260 259 257 255 253 252 250 248 246 244 242 240 239 238 237 236 236 235 235 234 234 233 233 232 232 232 232 231 231 231 230 230 229 229 228 228 228 228 229 229 229 230 230 231 232 232 233 233
317 316 315 314 313 312 312 311 310 310 309 308 307 306 305 303 302 301 299 297 295 294 292 290 288 286 284 282 280 278 276 274 272 270 268 266 264 262 261 259 257 255 253 252 250 248 246 244 242 240 239 238 237 237 236 236 235 235 234 234 233 232 232 232 231 231 231 230 230 230 229 229 228 228 227 227 228 228 228 229 229 230 230 231 232 232
320 318 317 316 316 315 314 313 312 312 311 310 309 308 306 305 304 302 301 299 297 295 293 291 289 287 284 282 280 278 276 274 272 270 268 266 264 263 261 259 257 255 253 252 250 248 246 244 242 240 239 238 237 237 236 236 235 235 234 234 233 233 232 232 231 231 230 230 230 230 229 229 228 228 227 227 227 227 227 228 228 229 229 230 230 231
322 321 320 319 318 317 316 315 314 314 313 312 311 310 308 307 306 304 303 301 299 297 295 292 290 288 285 283 281 279 276 274 272 270 268 266 265 263 261 259 257 255 253 251 250 248 246 244 242 240 239 238 237 237 236 236 235 235 234 233 233 232 232 231 231 230 229 229 229 229 229 229 228 228 227 227 227 227 227 227 227 228 228 228 229 230
324 323 322 321 320 319 318 317 317 316 315 314 313 312 310 309 308 307 305 303 301 299 296 294 291 289 286 284 282 279 277 274 272 270 268 266 264 263 261 259 257 255 253 251 249 247 245 244 242 240 239 238 237 236 236 235 235 234 233 233 232 232 231 231 230 229 229 228 229 229 228 228 228 227 227 227 227 227 227 227 227 227 227 227 228 228
Height
10478 10476 10474 10473 10472 10469 10468 10466 10465 10464 10463 10461 10460 10459 10458 10457 10456 10455 10455 10456 10457 10458 10459 10460 10461 10461 10461 10459 10458 10458 10456 10456 10456 10456 10458 10458 10459 10460 10461 10461 10462 10463 10464 10466 10466 10468 10468 10468 10469 10469 10471 10472 10473 10474 10476 10477 10478 10479 10481 10481 10483 10484 10485 10485 10486 10487 10488 10489 10489 10489 10490 10491 10493 10494 10493 10493 10492 10492 10494 10494 10496 10496 10496 10496 10496 10496
10467 10465 10464 10463 10462 10461 10459 10456 10456 10455 10453 10451 10450 10449 10449 10448 10446 10445 10444 10444 10444 10446 10447 10449 10451 10452 10453 10453 10452 10451 10450 10449 10448 10448 10449 10449 10451 10451 10452 10453 10454 10455 10456 10458 10459 10460 10461 10461 10462 10462 10463 10464 10465 10466 10468 10469 10471 10472 10473 10474 10475 10476 10478 10479 10480 10481 10482 10483 10484 10484 10484 10484 10486 10486 10487 10486 10486 10486 10488 10489 10490 10491 10491 10491 10491 10491
10458 10456 10454 10453 10452 10452 10449 10447 10446 10446 10444 10443 10441 10441 10440 10439 10437 10436 10435 10434 10433 10433 10433 10434 10436 10438 10440 10441 10442 10443 10442 10441 10440 10439 10439 10440 10441 10443 10443 10444 10445 10446 10448 10449 10451 10453 10453 10454 10454 10454 10455 10456 10457 10458 10459 10461 10463 10464 10466 10467 10468 10469 10471 10471 10473 10474 10475 10476 10478 10478 10478 10478 10479 10479 10480 10480 10480 10481 10482 10483 10484 10485 10486 10486 10486 10485
10449 10448 10444 10443 10443 10443 10440 10439 10438 10437 10436 10434 10434 10433 10432 10431 10429 10428 10427 10426 10425 10424 10423 10423 10424 10425 10426 10428 10429 10431 10431 10431 10431 10431 10430 10431 10431 10432 10433 10434 10436 10437 10438 10440 10442 10444 10445 10446 10447 10447 10448 10448 10449 10450 10451 10453 10454 10456 10458 10459 10461 10462 10463 10464 10466 10467 10468 10469 10471 10471 10471 10473 10474 10474 10474 10473 10474 10476 10476 10478 10479 10479 10481 10482 10482 10481
10440 10438 10436 10434 10434 10433 10431 10429 10429 10428 10427 10426 10426 10424 10424 10423 10422 10421 10419 10419 10418 10416 10415 10414 10414 10415 10416 10417 10418 10419 10420 10421 10421 10421 10421 10421 10421 10422 10423 10424 10425 10426 10428 10430 10432 10434 10436 10438 10439 10439 10440 10441 10441 10443 10443 10444 10446 10448 10449 10451 10453 10454 10456 10458 10459 10460 10461 10462 10463 10464 10464 10466 10468 10468 10468 10468 10468 10469 10471 10473 10474 10475 10475 10476 10478 10477
10429 10428 10426 10425 10424 10423 10421 10420 10419 10418 10417 10416 10416 10415 10415 10414 10413 10413 10412 10411 10409 10409 10408 10407 10407 10407 10407 10407 10408 10409 10410 10411 10412 10413 10413 10413 10413 10413 10414 10414 10415 10416 10418 10419 10421 10424 10426 10428 10430 10431 10432 10433 10434 10434 10436 10437 10438 10439 10441 10443 10445 10446 10448 10450 10451 10453 10454 10455 10456 10457 10458 10458 10459 10460 10462 10463 10463 10463 10464 10466 10469 10469 10469 10469 10471 10472
10419 10418 10416 10415 10413 10411 10410 10410 10409 10408 10406 10406 10405 10404 10404 10404 10404 10403 10402 10401 10401 10400 10399 10399 10399 10399 10399 10398 10399 10399 10400 10401 10402 10403 10404 10405 10405 10405 10406 10406 10406 10407 10408 10409 10411 10414 10416 10419 10421 10423 10424 10425 10426 10427 10428 10429 10430 10431 10433 10434 10436 10438 10440 10442 10444 10445 10446 10448 10449 10450 10451 10452 10452 10453 10454 10455 10456 10458 10459 10461 10462 10463 10463 10464 10465 10466
10409 10407 10405 10404 10403 10401 10399 10398 10397 10396 10396 10395 10393 10393 10392 10392 10392 10391 10391 10391 10390 10390 10390 10389 10389 10389 10389 10389 10389 10389 10390 10391 10392 10393 10394 10396 10396 10396 10396 10397 10398 10398 10399 10399 10401 10403 10406 10408 10411 10414 10416 10418 10418 10419 10420 10421 10422 10423 10425 10426 10428 10430 10432 10434 10436 10437 10438 10440 10441 10443 10444 10445 10445 10446 10448 10449 10450 10451 10452 10454 10456 10457 10457 10458 10459 10459
10398 10397 10394 10393 10392 10391 10389 10386 10384 10383 10384 10384 10383 10380 10379 10381 10380 10379 10378 10378 10378 10378 10378 10379 10379 10379 10378 10379 10379 10380 10380 10381 10382 10383 10384 10386 10386 10387 10388 10388 10388 10388 10389 10390 10391 10393 10394 10397 10400 10403 10406 10408 10410 10411 10412 10413 10414 10415 10416 10418 10420 10421 10423 10426 10428 10429 10431 10432 10434 10435 10436 10438 10439 10440 10442 10443 10445 10446 10446 10448 10449 10451 10451 10452 10453 10454
10386 10386 10385 10383 10381 10380 10379 10378 10374 10371 10371 10373 10372 10369 10367 10368 10369 10368 10366 10366 10366 10366 10366 10367 10367 10367 10366 10368 10369 10369 10370 10370 10371 10373 10374 10376 10376 10378 10378 10378 10378 10378 10379 10379 10381 10382 10383 10386 10389 10392 10395 10398 10400 10401 10403 10404 10405 10406 10408 10409 10411 10413 10415 10417 10419 10421 10423 10424 10426 10427 10429 10431 10433 10434 10435 10437 10439 10440 10441 10442 10443 10445 10446 10446 10448 10449
10374 10373 10373 10371 10369 10368 10367 10366 10364 10361 10360 10361 10359 10357 10354 10355 10356 10358 10356 10355 10354 10354 10354 10355 10354 10354 10355 10356 10356 10357 10358 10359 10360 10361 10363 10365 10367 10368 10369 10369 10369 10369 10368 10368 10369 10371 10373 10375 10378 10380 10383 10386 10389 10391 10393 10394 10396 10397 10398 10400 10402 10404 10406 10408 10410 10413 10414 10416 10418 10419 10421 10423 10424 10426 10428 10431 10433 10434 10435 10436 10437 10438 10439 10441 10442 10443
10362 10360 10359 10358 10356 10354 10352 10351 10350 10348 10347 10347 10346 10344 10341 10339 10341 10344 10346 10344 10341 10341 10343 10344 10343 10342 10343 10344 10345 10344 10345 10346 10348 10348 10350 10353 10356 10358 10358 10359 10359 10359 10358 10358 10358 10359 10361 10364 10366 10369 10372 10375 10378 10381 10383 10384 10386 10387 10389 10391 10393 10394 10396 10399 10401 10403 10406 10408 10409 10411 10413 10415 10417 10418 10420 10423 10425 10428 10429 10431 10431 10432 10433 10434 10436 10438
10348 10346 10345 10344 10341 10338 10336 10336 10334 10333 10331 10329 10329 10328 10326 10324 10325 10328 10330 10329 10327 10326 10329 10331 10331 10330 10329 10331 10333 10333 10332 10333 10334 10336 10338 10341 10343 10345 10346 10348 10349 10349 10349 10349 10348 10348 10349 10352 10354 10358 10360 10363 10366 10369 10372 10374 10376 10377 10379 10381 10383 10385 10388 10390 10392 10394 10397 10399 10401 10403 10405 10407 10409 10411 10413 10414 10417 10419 10422 10424 10425 10426 10427 10429 10430 10432
10335 10333 10331 10329 10326 10323 10321 10320 10319 10316 10314 10312 10311 10311 10311 10309 10309 10309 10311 10311 10311 10310 10313 10317 10318 10317 10315 10316 10318 10319 10318 10318 10320 10323 10326 10328 10330 10332 10334 10336 10337 10338 10339 10340 10340 10339 10338 10339 10342 10344 10348 10351 10355 10359 10361 10364 10366 10368 10369 10371 10373 10376 10378 10381 10383 10385 10388 10390 10393 10395 10397 10399 10401 10403 10405 10407 10409 10411 10414 10416 10418 10420 10421 10423 10424 10426
10322 10320 10318 10315 10311 10308 10306 10304 10303 10301 10298 10295 10294 10294 10295 10294 10292 10291 10293 10294 10294 10294 10295 10299 10303 10303 10301 10301 10303 10304 10303 10303 10305 10308 10312 10314 10316 10318 10321 10324 10324 10325 10327 10329 10331 10329 10328 10328 10329 10331 10334 10339 10344 10348 10351 10353 10356 10358 10359 10361 10363 10366 10369 10371 10374 10376 10379 10381 10384 10387 10389 10392 10394 10396 10398 10400 10402 10404 10406 10409 10411 10413 10414 10416 10418 10420
10309 10307 10304 10301 10296 10293 10291 10289 10288 10286 10283 10279 10278 10278 10279 10278 10276 10274 10275 10277 10278 10278 10278 10281 10284 10286 10284 10285 10287 10289 10289 10288 10289 10291 10295 10299 10301 10303 10307 10310 10312 10313 10314 10317 10319 10319 10318 10318 10318 10319 10321 10326 10331 10335 10339 10343 10345 10347 10349 10351 10353 10356 10359 10362 10365 10368 10370 10373 10376 10378 10381 10384 10386 10388 10391 10393 10395 10398 10399 10402 10404 10406 10408 10409 10412 10414
10294 10292 10289 10286 10283 10279 10276 10274 10273 10271 10268 10264 10263 10263 10263 10262 10261 10259 10259 10260 10261 10261 10261 10263 10266 10268 10268 10269 10271 10273 10274 10274 10273 10274 10277 10282 10286 10288 10290 10294 10298 10299 10299 10303 10308 10309 10309 10308 10308 10307 10308 10311 10316 10322 10327 10331 10334 10336 10339 10341 10343 10346 10349 10353 10356 10359 10362 10364 10367 10369 10372 10375 10378 10381 10383 10386 10388 10391 10393 10395 10397 10399 10401 10403 10406 10408
10281 10277 10274 10271 10268 10264 10261 10259 10258 10255 10253 10250 10248 10248 10247 10246 10246 10245 10244 10244 10244 10244 10244 10246 10248 10250 10252 10253 10254 10254 10257 10259 10259 10259 10259 10263 10268 10272 10274 10278 10282 10284 10286 10289 10294 10298 10299 10299 10298 10296 10294 10298 10303 10308 10313 10318 10323 10326 10328 10331 10333 10336 10339 10343 10347 10350 10353 10355 10358 10361 10364 10366 10369 10373 10376 10378 10381 10383 10386 10388 10390 10392 10394 10397 10399 10401
10267 10263 10259 10256 10253 10250 10248 10245 10243 10241 10239 10236 10234 10233 10233 10232 10231 10229 10229 10229 10228 10228 10228 10229 10231 10233 10235 10236 10237 10238 10240 10242 10244 10244 10243 10245 10251 10256 10260 10263 10266 10268 10271 10274 10279 10284 10288 10289 10288 10286 10284 10285 10289 10294 10299 10304 10309 10314 10318 10320 10323 10326 10330 10334 10337 10341 10343 10346 10349 10352 10355 10358 10361 10364 10368 10370 10373 10376 10378 10381 10383 10385 10388 10390 10393 10394
10253 10249 10245 10242 10239 10236 10234 10231 10228 10227 10226 10223 10221 10219 10219 10218 10216 10215 10214 10213 10213 10213 10213 10214 10215 10216 10218 10219 10221 10223 10224 10225 10227 10228 10227 10228 10233 10240 10245 10248 10249 10251 10254 10258 10264 10269 10274 10277 10278 10276 10274 10273 10274 10279 10287 10293 10298 10302 10306 10310 10313 10316 10320 10324 10328 10331 10334 10337 10340 10343 10346 10349 10353 10356 10359 10363 10366 10368 10371 10373 10376 10378 10381 10383 10386 10388
10238 10234 10231 10228 10226 10224 10221 10217 10214 10213 10212 10210 10208 10206 10204 10203 10203 10201 10200 10199 10198 10198 10198 10199 10199 10201 10203 10204 10206 10208 10209 10209 10209 10211 10211 10213 10217 10223 10229 10232 10233 10235 10238 10243 10248 10254 10258 10262 10264 10265 10264 10262 10261 10263 10269 10279 10287 10292 10295 10299 10303 10306 10309 10313 10318 10321 10324 10328 10331 10334 10338 10341 10344 10348 10351 10354 10358 10360 10363 10366 10368 10371 10374 10376 10379 10381
10224 10221 10217 10214 10212 10210 10207 10204 10202 10200 10198 10196 10194 10192 10190 10189 10188 10188 10186 10185 10184 10184 10184 10184 10184 10186 10188 10190 10191 10192 10193 10193 10193 10194 10195 10197 10201 10208 10213 10214 10216 10219 10223 10228 10233 10238 10243 10247 10249 10251 10252 10251 10250 10249 10253 10261 10271 10280 10286 10289 10292 10296 10299 10303 10306 10311 10314 10318 10322 10325 10328 10332 10335 10339 10343 10346 10349 10352 10355 10358 10361 10364 10367 10369 10372 10374
10209 10206 10203 10200 10198 10196 10193 10191 10189 10187 10185 10183 10181 10178 10176 10176 10174 10174 10173 10172 10171 10171 10171 10170 10171 10172 10174 10175 10176 10177 10178 10178 10178 10178 10179 10183 10187 10192 10196 10198 10200 10203 10208 10211 10216 10221 10226 10231 10233 10236 10239 10239 10239 10238 10239 10245 10254 10264 10273 10278 10281 10284 10288 10291 10295 10299 10304 10308 10311 10316 10319 10323 10327 10331 10334 10338 10341 10344 10347 10350 10353 10356 10359 10362 10364 10368
10194 10191 10189 10186 10184 10182 10179 10178 10176 10174 10171 10169 10167 10164 10163 10162 10161 10161 10160 10159 10159 10158 10157 10157 10158 10159 10159 10161 10162 10163 10163 10163 10163 10164 10166 10169 10173 10176 10181 10184 10186 10188 10191 10194 10200 10206 10211 10214 10217 10219 10224 10226 10227 10226 10226 10229 10238 10249 10258 10264 10269 10272 10276 10279 10283 10288 10292 10297 10301 10306 10309 10314 10318 10322 10326 10329 10333 10336 10339 10342 10345 10348 10351 10354 10357 10360
10179 10177 10174 10173 10170 10168 10166 10164 10162 10160 10158 10156 10153 10151 10150 10149 10149 10148 10147 10146 10146 10145 10144 10145 10145 10146 10146 10148 10149 10149 10149 10149 10149 10149 10152 10154 10158 10163 10168 10171 10171 10172 10174 10178 10184 10190 10194 10198 10199 10203 10208 10212 10214 10214 10213 10216 10223 10233 10243 10250 10255 10259 10263 10267 10271 10276 10281 10286 10291 10295 10300 10304 10308 10313 10316 10321 10324 10328 10331 10334 10338 10340 10343 10346 10349 10353
10167 10164 10162 10159 10157 10155 10153 10151 10149 10147 10145 10143 10141 10139 10138 10136 10136 10135 10134 10133 10132 10132 10132 10133 10133 10134 10134 10136 10136 10135 10135 10134 10135 10136 10138 10141 10145 10149 10154 10156 10157 10157 10159 10163 10169 10174 10178 10181 10183 10186 10191 10197 10200 10201 10201 10203 10209 10217 10227 10235 10241 10246 10251 10256 10259 10264 10269 10274 10280 10285 10290 10294 10299 10303 10308 10311 10315 10319 10322 10326 10329 10333 10335 10338 10341 10345
10156 10153 10150 10148 10145 10143 10141 10139 10137 10134 10133 10131 10129 10127 10126 10125 10124 10123 10121 10120 10119 10120 10120 10121 10121 10121 10123 10123 10123 10123 10122 10122 10121 10122 10124 10129 10133 10136 10140 10142 10143 10143 10144 10148 10153 10158 10162 10164 10168 10171 10176 10181 10185 10188 10189 10191 10195 10202 10211 10219 10227 10233 10239 10244 10249 10253 10258 10264 10269 10275 10280 10285 10289 10294 10298 10302 10306 10309 10314 10318 10321 10325 10328 10331 10334 10338
10144 10141 10139 10136 10134 10131 10129 10127 10125 10123 10121 10119 10118 10116 10115 10114 10113 10111 10109 10109 10109 10109 10108 10109 10109 10109 10110 10111 10111 10110 10110 10109 10108 10109 10112 10116 10120 10123 10125 10128 10129 10129 10131 10134 10138 10143 10148 10150 10153 10157 10161 10165 10169 10173 10176 10179 10183 10188 10195 10204 10213 10220 10226 10232 10237 10242 10247 10253 10258 10264 10269 10274 10279 10284 10288 10293 10297 10301 10305 10309 10313 10316 10319 10323 10326 10330
10134 10131 10128 10125 10123 10120 10118 10116 10114 10111 10109 10108 10106 10105 10104 10103 10102 10100 10098 10098 10098 10098 10097 10098 10098 10098 10099 10099 10099 10099 10098 10098 10096 10097 10100 10104 10107 10109 10112 10114 10116 10116 10118 10121 10124 10129 10133 10136 10139 10143 10146 10149 10153 10158 10163 10167 10171 10175 10181 10189 10199 10206 10212 10218 10223 10229 10235 10241 10247 10253 10258 10264 10269 10274 10278 10283 10288 10291 10296 10300 10304 10307 10310 10314 10318 10322
10124 10121 10118 10115 10112 10110 10108 10105 10103 10101 10099 10098 10096 10094 10093 10093 10091 10090 10088 10088 10088 10087 10086 10087 10087 10088 10088 10088 10089 10088 10087 10086 10086 10086 10089 10093 10095 10098 10100 10103 10103 10104 10108 10111 10114 10117 10119 10123 10126 10129 10132 10135 10139 10143 10148 10154 10159 10163 10169 10177 10184 10191 10198 10203 10209 10216 10223 10229 10235 10241 10247 10253 10258 10263 10268 10273 10278 10282 10287 10291 10294 10298 10301 10306 10310 10314
10117 10113 10109 10106 10103 10100 10098 10096 10093 10091 10089 10088 10086 10084 10083 10083 10081 10080 10079 10079 10078 10078 10077 10077 10077 10077 10078 10078 10078 10078 10077 10076 10075 10076 10079 10083 10084 10086 10089 10091 10091 10094 10099 10102 10104 10106 10108 10111 10115 10118 10121 10124 10127 10131 10136 10142 10148 10154 10161 10166 10171 10177 10183 10188 10195 10203 10211 10217 10224 10229 10236 10241 10248 10253 10258 10263 10268 10273 10277 10281 10286 10289 10293 10298 10302 10307
10110 10106 10102 10098 10095 10092 10089 10086 10084 10082 10080 10078 10077 10075 10074 10073 10072 10071 10070 10069 10069 10069 10068 10068 10068 10068 10068 10069 10069 10068 10067 10066 10066 10068 10071 10073 10075 10076 10079 10080 10080 10082 10087 10090 10093 10096 10098 10102 10106 10109 10111 10114 10118 10123 10128 10133 10140 10146 10151 10154 10158 10162 10168 10174 10182 10190 10199 10206 10213 10219 10224 10231 10236 10243 10248 10253 10258 10263 10268 10272 10276 10281 10285 10289 10294 10299
10103 10099 10095 10091 10088 10085 10082 10079 10076 10074 10072 10070 10068 10067 10066 10064 10063 10063 10061 10061 10061 10060 10059 10059 10058 10058 10059 10059 10059 10059 10058 10058 10058 10059 10062 10064 10065 10066 10068 10069 10070 10072 10076 10079 10083 10087 10089 10092 10096 10099 10102 10106 10109 10114 10120 10126 10131 10136 10141 10144 10146 10149 10154 10160 10169 10179 10187 10195 10201 10208 10214 10219 10226 10232 10238 10243 10248 10253 10258 10263 10268 10272 10276 10281 10286 10291
10096 10092 10088 10085 10081 10078 10075 10072 10069 10067 10064 10063 10061 10059 10058 10056 10055 10054 10053 10053 10053 10052 10051 10051 10050 10050 10050 10050 10051 10050 10050 10049 10049 10051 10053 10056 10056 10057 10058 10059 10061 10063 10066 10071 10074 10078 10079 10083 10086 10089 10093 10097 10101 10106 10112 10117 10122 10127 10131 10134 10136 10138 10141 10148 10158 10167 10176 10184 10191 10197 10203 10209 10215 10221 10227 10233 10238 10243 10248 10253 10258 10263 10268 10273 10279 10284
10089 10085 10081 10078 10075 10071 10068 10065 10063 10060 10058 10056 10054 10052 10051 10049 10048 10047 10046 10045 10044 10044 10043 10043 10043 10042 10043 10043 10043 10043 10042 10041 10042 10043 10044 10047 10049 10049 10050 10052 10054 10056 10059 10063 10066 10069 10072 10074 10078 10082 10086 10089 10093 10097 10102 10106 10111 10116 10121 10124 10126 10128 10131 10137 10146 10155 10164 10173 10180 10186 10192 10198 10204 10210 10216 10222 10228 10233 10239 10244 10249 10253 10258 10264 10271 10277
10083 10079 10075 10071 10068 10065 10062 10059 10056 10054 10051 10049 10048 10046 10044 10043 10041 10040 10039 10038 10037 10036 10036 10035 10035 10035 10035 10036 10036 10035 10034 10034 10035 10036 10036 10039 10041 10043 10044 10044 10046 10048 10051 10053 10056 10060 10063 10067 10070 10074 10078 10080 10083 10087 10091 10095 10100 10105 10109 10113 10116 10118 10121 10126 10134 10143 10153 10161 10169 10175 10180 10186 10193 10199 10206 10211 10218 10223 10229 10234 10239 10244 10249 10255 10263 10269
10076 10072 10069 10065 10062 10059 10056 10053 10050 10048 10045 10043 10041 10039 10038 10036 10034 10033 10033 10031 10031 10030 10029 10028 10028 10028 10028 10028 10028 10028 10027 10028 10028 10029 10030 10031 10033 10034 10036 10037 10038 10041 10043 10045 10048 10052 10056 10059 10062 10065 10068 10071 10073 10077 10081 10085 10089 10094 10098 10101 10104 10107 10110 10115 10122 10131 10141 10150 10158 10164 10169 10175 10182 10189 10195 10201 10208 10213 10219 10224 10230 10235 10240 10246 10253 10259
10069 10066 10063 10059 10056 10053 10049 10047 10044 10041 10039 10037 10035 10033 10031 10030 10028 10027 10026 10025 10024 10023 10023 10022 10021 10021 10021 10021 10021 10021 10021 10021 10022 10023 10023 10024 10026 10028 10029 10029 10031 10033 10035 10038 10041 10044 10048 10051 10054 10057 10059 10062 10065 10068 10072 10076 10079 10083 10086 10089 10093 10097 10100 10105 10112 10120 10129 10138 10146 10152 10158 10164 10171 10178 10184 10191 10198 10204 10209 10214 10220 10226 10231 10237 10243 10250
10064 10060 10056 10054 10051 10048 10044 10041 10039 10036 10034 10031 10029 10028 10026 10024 10023 10021 10020 10019 10018 10018 10016 10016 10015 10015 10014 10014 10014 10014 10014 10015 10015 10016 10017 10018 10019 10021 10021 10023 10024 10026 10029 10031 10034 10037 10040 10043 10046 10049 10051 10054 10057 10059 10063 10066 10069 10073 10076 10081 10085 10089 10092 10096 10102 10109 10118 10126 10134 10141 10148 10154 10161 10168 10174 10181 10188 10194 10199 10204 10210 10216 10221 10228 10234 10240
10058 10054 10051 10048 10045 10042 10039 10036 10033 10031 10028 10026 10024 10022 10020 10018 10017 10016 10014 10014 10013 10011 10011 10010 10009 10009 10009 10008 10009 10009 10009 10009 10009 10010 10011 10012 10013 10014 10015 10016 10018 10019 10022 10024 10028 10030 10033 10036 10038 10041 10044 10046 10049 10051 10054 10057 10060 10063 10068 10072 10076 10079 10083 10087 10093 10099 10108 10116 10124 10131 10138 10144 10151 10158 10164 10170 10177 10183 10189 10194 10200 10206 10212 10218 10224 10230
10053 10049 10046 10043 10039 10037 10034 10031 10028 10026 10023 10021 10019 10017 10015 10013 10011 10010 10009 10008 10007 10006 10005 10004 10004 10003 10003 10003 10003 10003 10003 10003 10003 10004 10004 10006 10006 10008 10009 10009 10011 10013 10016 10018 10021 10023 10026 10029 10031 10034 10036 10039 10041 10044 10046 10049 10052 10055 10059 10063 10066 10069 10073 10079 10084 10091 10098 10106 10114 10122 10129 10135 10141 10147 10153 10160 10166 10173 10179 10185 10191 10198 10203 10209 10215 10221
10048 10044 10041 10038 10034 10032 10029 10026 10024 10021 10019 10016 10014 10012 10010 10009 10007 10006 10004 10003 10002 10001 10000 9999 9998 9998 9998 9997 9997 9997 9997 9998 9998 9998 9999 9999 10001 10001 10003 10004 10005 10007 10009 10011 10014 10016 10019 10022 10024 10026 10029 10032 10034 10036 10038 10041 10044 10047 10051 10054 10058 10062 10067 10072 10077 10083 10089 10097 10105 10113 10120 10125 10131 10137 10143 10150 10156 10163 10169 10176 10183 10189 10194 10201 10206 10212
10043 10039 10036 10033 10029 10027 10024 10022 10019 10017 10014 10012 10009 10008 10006 10004 10003 10001 9999 9998 9997 9996 9995 9994 9993 9993 9992 9992 9992 9992 9992 9992 9992 9993 9993 9994 9995 9996 9997 9998 9999 10001 10003 10005 10008 10010 10013 10015 10018 10019 10022 10025 10027 10029 10031 10033 10036 10039 10043 10046 10050 10055 10059 10064 10068 10074 10081 10088 10096 10103 10109 10115 10121 10126 10133 10140 10148 10154 10161 10167 10173 10179 10186 10192 10198 10204
10038 10034 10031 10028 10025 10023 10020 10018 10015 10013 10010 10008 10005 10003 10001 9999 9998 9996 9994 9993 9992 9991 9990 9989 9989 9988 9988 9987 9987 9987 9987 9987 9988 9988 9988 9989 9989 9991 9992 9993 9994 9996 9998 9999 10001 10004 10006 10009 10011 10013 10016 10018 10019 10021 10023 10026 10028 10031 10034 10038 10043 10047 10051 10055 10060 10066 10073 10080 10087 10094 10100 10106 10112 10118 10124 10131 10139 10146 10152 10158 10164 10170 10177 10183 10189 10196
10035 10031 10028 10024 10021 10018 10016 10013 10011 10008 10006 10004 10001 9999 9997 9995 9994 9992 9991 9989 9988 9987 9986 9985 9984 9984 9983 9983 9983 9983 9983 9983 9983 9983 9983 9984 9985 9986 9987 9988 9989 9991 9992 9994 9996 9998 10001 10003 10005 10007 10009 10011 10013 10014 10016 10018 10021 10024 10027 10031 10035 10039 10044 10049 10054 10060 10066 10072 10079 10085 10091 10097 10103 10109 10116 10123 10129 10136 10142 10148 10154 10161 10168 10174 10181 10188
10031 10028 10024 10021 10018 10014 10012 10009 10007 10004 10002 10000 9998 9995 9993 9991 9989 9988 9986 9985 9984 9983 9982 9981 9980 9979 9979 9979 9978 9978 9978 9978 9978 9979 9979 9979 9980 9981 9982 9983 9984 9986 9987 9989 9991 9993 9995 9997 9999 10001 10003 10004 10006 10008 10010 10012 10014 10017 10020 10024 10028 10033 10038 10043 10048 10053 10059 10064 10070 10076 10082 10088 10094 10100 10106 10113 10118 10125 10132 10139 10145 10152 10158 10165 10172 10179
10028 10024 10021 10018 10014 10011 10008 10006 10003 10001 9998 9996 9994 9991 9989 9988 9986 9984 9983 9981 9980 9979 9978 9977 9976 9976 9975 9975 9974 9974 9974 9974 9974 9974 9974 9975 9976 9976 9978 9978 9979 9981 9982 9984 9986 9988 9989 9992 9994 9996 9998 9999 10001 10002 10004 10006 10009 10011 10014 10018 10023 10027 10031 10036 10041 10046 10051 10057 10063 10068 10074 10080 10086 10091 10097 10103 10109 10116 10123 10129 10136 10143 10150 10156 10163 10170
10024 10021 10018 10014 10011 10008 10005 10003 9999 9998 9995 9993 9991 9988 9986 9984 9983 9981 9979 9978 9976 9976 9974 9973 9973 9972 9971 9971 9971 9971 9971 9971 9971 9971 9971 9971 9971 9972 9973 9974 9975 9976 9978 9979 9981 9983 9984 9986 9988 9990 9992 9994 9996 9997 9999 10001 10003 10006 10010 10014 10018 10021 10025 10029 10034 10040 10046 10051 10056 10061 10067 10072 10078 10083 10088 10094 10101 10108 10114 10121 10128 10135 10141 10149 10156 10162
10021 10018 10014 10011 10008 10005 10002 9999 9996 9994 9992 9989 9987 9985 9983 9981 9979 9978 9976 9974 9973 9972 9971 9970 9969 9969 9968 9968 9967 9967 9967 9967 9967 9967 9967 9967 9968 9968 9969 9969 9971 9972 9973 9974 9976 9978 9979 9981 9984 9986 9988 9989 9991 9992 9994 9996 9999 10002 10006 10009 10013 10016 10019 10024 10029 10034 10040 10044 10049 10055 10060 10065 10070 10076 10081 10088 10094 10100 10106 10113 10119 10126 10133 10141 10148 10154
10019 10015 10012 10009 10005 10002 9999 9996 9994 9991 9989 9986 9984 9982 9980 9978 9976 9974 9973 9971 9970 9969 9968 9967 9966 9965 9964 9964 9964 9964 9964 9963 9963 9963 9963 9963 9964 9964 9964 9966 9966 9968 9968 9970 9971 9973 9975 9977 9979 9981 9983 9984 9986 9988 9989 9992 9994 9998 10001 10004 10008 10011 10015 10019 10024 10029 10034 10039 10043 10048 10053 10058 10064 10070 10076 10082 10087 10093 10098 10104 10111 10118 10125 10132 10139 10146
10016 10013 10009 10006 10003 10000 9997 9994 9991 9988 9986 9984 9981 9979 9977 9975 9973 9972 9970 9969 9968 9966 9965 9964 9963 9962 9961 9961 9961 9960 9960 9960 9960 9960 9959 9960 9960 9961 9961 9962 9963 9964 9964 9966 9967 9969 9971 9973 9974 9976 9978 9980 9982 9983 9985 9988 9990 9993 9996 9999 10003 10006 10009 10014 10019 10024 10029 10033 10038 10042 10047 10053 10058 10064 10069 10074 10079 10085 10091 10097 10104 10111 10117 10124 10131 10138